SR5NLK-1 Weather Reports


time (UTC)temp
C
wind
direction
speed
KPH
gust
KPH
rain 1hr
cm
rain 24hr
cm
rain mn
cm
humidity
%
barometer
mb
20260509031224 8 270 3.2 6.4 0.00 0.00 0.00 88 875.5
20260509030724 8 315 3.2 4.8 0.00 0.00 0.00 88 1081.5
20260509030623 8 315 3.2 4.8 0.00 0.00 0.00 88 985.3
20260509030224 8 270 3.2 6.4 0.00 0.00 0.00 88 1013.5
20260509025724 8 315 4.8 9.7 0.00 0.00 0.00 87 1030.3
20260509025224 8 292 3.2 9.7 0.00 0.00 0.00 87 1078.4
20260509024724 8 315 3.2 9.7 0.00 0.00 0.00 87 1039.7
20260509024224 8 292 3.2 6.4 0.00 0.00 0.00 87 1046.0
20260509023724 8 292 6.4 6.4 0.00 0.00 0.00 87 997.9
20260509023323 8 315 6.4 6.4 0.00 0.00 0.00 87 1007.3
20260509023224 8 292 3.2 6.4 0.00 0.00 0.00 87 971.6
20260509022724 8 292 6.4 8.0 0.00 0.00 0.00 87 1023.9
20260509022224 8 270 3.2 6.4 0.00 0.00 0.00 87 968.6
20260509021724 8 315 0.0 8.0 0.00 0.00 0.00 87 1030.2
20260509021224 8 292 6.4 8.0 0.00 0.00 0.00 87 923.5
20260509020724 8 292 1.6 4.8 0.00 0.00 0.00 87 1010.4
20260509020224 8 0 1.6 4.8 0.00 0.00 0.00 87 1004.1
20260509020023 8 270 3.2 9.7 0.00 0.00 0.00 87 955.2
20260509015724 8 292 4.8 9.7 0.00 0.00 0.00 87 1039.7
20260509015224 8 0 1.6 6.4 0.00 0.00 0.00 87 1049.1
20260509014724 8 270 6.4 8.0 0.00 0.00 0.00 87 956.0
20260509014224 8 270 4.8 8.0 0.00 0.00 0.00 87 923.6
20260509013724 8 292 4.8 6.4 0.00 0.00 0.00 87 923.6
20260509013224 8 270 3.2 6.4 0.00 0.00 0.00 87 1087.8
20260509012723 8 270 0.0 6.4 0.00 0.00 0.00 87 920.5
20260509012224 8 292 3.2 6.4 0.00 0.00 0.00 87 1097.2
20260509011724 8 292 6.4 6.4 0.00 0.00 0.00 87 1049.1
20260509011224 8 292 1.6 6.4 0.00 0.00 0.00 86 1039.6
20260509010724 8 315 6.4 6.4 0.00 0.00 0.00 86 985.3
20260509010224 8 270 1.6 6.4 0.00 0.00 0.00 86 1055.4
20260509005724 8 315 3.2 6.4 0.00 0.00 0.00 86 1081.5
20260509005423 8 315 4.8 4.8 0.00 0.00 0.00 86 1072.1
20260509005224 8 337 1.6 8.0 0.00 0.00 0.00 86 1001.0
20260509004724 8 292 4.8 4.8 0.00 0.00 0.00 86 1010.4
20260509004224 8 292 3.2 4.8 0.00 0.00 0.00 86 1084.7
20260509003724 8 270 1.6 4.8 0.00 0.00 0.00 86 1007.3
20260509003224 8 270 1.6 8.0 0.00 0.00 0.00 86 1039.7
20260509002724 8 292 8.0 8.0 0.00 0.00 0.00 86 1010.4
20260509002224 8 315 3.2 8.0 0.00 0.00 0.00 85 1036.5
20260509002123 8 270 3.2 8.0 0.00 0.00 0.00 85 1039.6
20260509001724 8 337 3.2 9.7 0.00 0.00 0.00 86 1046.0
20260509001224 8 292 4.8 8.0 0.00 0.00 0.00 85 1036.6
20260509000725 8 292 3.2 6.4 0.00 0.00 0.00 85 1004.1
20260509000226 8 0 3.2 6.4 0.00 0.00 0.00 85 1016.6
20260508235724 8 292 4.8 8.0 0.00 0.00 0.00 85 1052.2
20260508235224 8 337 4.8 9.7 0.00 0.00 0.00 85 1078.3
20260508234823 8 292 6.4 11.3 0.00 0.00 0.00 85 1094.1
20260508234724 8 315 6.4 11.3 0.00 0.00 0.00 85 991.6
20260508234224 8 315 9.7 9.7 0.00 0.00 0.00 85 1042.8
20260508233724 8 292 3.2 9.7 0.00 0.00 0.00 84 1039.7
20260508233224 8 315 6.4 6.4 0.00 0.00 0.00 84 1036.5
20260508232724 8 315 4.8 8.0 0.00 0.00 0.00 84 1087.8
20260508232427 8 315 1.6 6.4 0.00 0.00 0.00 84 1084.6
20260508232224 8 315 1.6 6.4 0.00 0.00 0.00 84 1084.6
20260508231724 8 270 0.0 8.0 0.00 0.00 0.00 84 1042.8
20260508231224 8 315 8.0 8.0 0.00 0.00 0.00 84 1084.7
20260508230724 8 315 6.4 8.0 0.00 0.00 0.00 84 1058.4
20260508230224 8 315 4.8 4.8 0.00 0.00 0.00 84 946.3
20260508225724 8 292 3.2 6.4 0.00 0.00 0.00 84 1001.0
20260508225224 8 315 3.2 4.8 0.00 0.00 0.00 84 1010.4
20260508224724 8 292 3.2 4.8 0.00 0.00 0.00 84 1049.1
20260508224223 8 315 4.8 6.4 0.00 0.00 0.00 84 997.9
20260508223724 8 292 6.4 6.4 0.00 0.00 0.00 84 1081.5
20260508223224 8 292 4.8 9.7 0.00 0.00 0.00 84 971.7
20260508222724 8 315 1.6 4.8 0.00 0.00 0.00 84 1039.7
20260508222224 8 0 1.6 6.4 0.00 0.00 0.00 84 1055.4
20260508221724 8 292 3.2 8.0 0.00 0.00 0.00 84 1097.2
20260508221224 8 315 6.4 6.4 0.00 0.00 0.00 84 1039.7
20260508220923 8 315 3.2 6.4 0.00 0.00 0.00 84 1049.1
20260508220724 8 337 6.4 6.4 0.00 0.00 0.00 84 1094.0
20260508220224 8 0 3.2 8.0 0.00 0.00 0.00 83 1049.1
20260508215724 8 292 6.4 11.3 0.00 0.00 0.00 83 1097.2
20260508215224 8 135 0.0 9.7 0.00 0.00 0.00 83 965.4
20260508214725 8 292 8.0 11.3 0.00 0.00 0.00 83 953.2
20260508214224 8 337 3.2 11.3 0.00 0.00 0.00 83 1081.5
20260508213724 8 315 8.0 14.5 0.00 0.00 0.00 83 1036.6
20260508213623 8 292 8.0 14.5 0.00 0.00 0.00 83 1036.6
20260508213224 8 337 4.8 8.0 0.00 0.00 0.00 83 1008.4
20260508212724 9 292 3.2 9.7 0.00 0.00 0.00 83 1090.9
20260508212224 9 315 6.4 9.7 0.00 0.00 0.00 83 1013.5
20260508211724 9 292 8.0 11.3 0.00 0.00 0.00 83 1069.0
20260508211224 9 0 6.4 8.0 0.00 0.00 0.00 83 1001.0
20260508210724 9 0 3.2 9.7 0.00 0.00 0.00 82 1027.9
20260508210323 9 337 1.6 8.0 0.00 0.00 0.00 82 1058.5
20260508210224 9 315 4.8 8.0 0.00 0.00 0.00 82 1016.6
20260508205724 9 22 4.8 9.7 0.00 0.00 0.00 82 1049.1
20260508205225 9 337 4.8 9.7 0.00 0.00 0.00 82 1007.2
20260508204724 9 337 8.0 12.9 0.00 0.00 0.00 82 1046.0
20260508204224 9 292 8.0 9.7 0.00 0.00 0.00 82 965.2
20260508203724 9 0 8.0 8.0 0.00 0.00 0.00 82 1036.6
20260508203224 9 315 1.6 8.0 0.00 0.00 0.00 81 1052.2
20260508203023 9 337 6.4 8.0 0.00 0.00 0.00 81 1094.0
20260508202724 9 0 4.8 8.0 0.00 0.00 0.00 81 1049.1
20260508202224 9 270 0.0 9.7 0.00 0.00 0.00 81 997.9
20260508201724 9 315 6.4 9.7 0.00 0.00 0.00 82 1004.1
20260508201224 9 0 3.2 8.0 0.00 0.00 0.00 82 1030.3
20260508200724 9 337 3.2 8.0 0.00 0.00 0.00 82 1075.3
20260508200224 9 22 3.2 8.0 0.00 0.00 0.00 82 1075.3
20260508195723 9 292 3.2 8.0 0.00 0.00 0.00 82 1042.8
20260508195224 9 292 0.0 11.3 0.00 0.00 0.00 82 1030.2
20260508194724 9 292 11.3 11.3 0.00 0.00 0.00 82 980.9
20260508194224 9 292 6.4 8.0 0.00 0.00 0.00 82 1024.0
20260508193724 9 315 1.6 8.0 0.00 0.00 0.00 82 1065.8
20260508193224 10 337 4.8 8.0 0.00 0.00 0.00 82 1087.8
20260508192724 9 315 4.8 4.8 0.00 0.00 0.00 82 1042.8
20260508192423 10 0 0.0 11.3 0.00 0.00 0.00 82 1049.9
20260508192224 10 0 0.0 11.3 0.00 0.00 0.00 82 1081.5
20260508191724 10 337 0.0 8.0 0.00 0.00 0.00 82 1007.3
20260508191224 10 22 3.2 9.7 0.00 0.00 0.00 82 1087.8
20260508190724 10 337 9.7 9.7 0.00 0.00 0.00 82 1078.3
20260508190224 10 22 3.2 9.7 0.00 0.00 0.00 82 988.4
20260508185724 10 0 8.0 8.0 0.00 0.00 0.00 83 1072.3
20260508185224 10 315 3.2 8.0 0.00 0.00 0.00 83 1084.7
20260508185124 10 0 4.8 8.0 0.00 0.00 0.00 83 1094.1
20260508184725 10 337 6.4 8.0 0.00 0.00 0.00 83 1081.5
20260508184224 10 45 4.8 9.7 0.00 0.00 0.00 83 1072.1
20260508183724 10 270 0.0 4.8 0.00 0.00 0.00 83 965.4
20260508183225 10 292 1.6 8.0 0.00 0.00 0.00 83 1052.2
20260508182725 10 292 8.0 8.0 0.00 0.00 0.00 83 1087.8
20260508182225 10 292 4.8 6.4 0.00 0.00 0.00 83 1078.4
20260508181824 10 292 1.6 3.2 0.00 0.00 0.00 83 1078.6
20260508181725 10 270 1.6 3.2 0.00 0.00 0.00 83 1044.5
20260508181225 10 315 3.2 6.4 0.00 0.00 0.00 83 1036.5
20260508180725 10 292 3.2 4.8 0.00 0.00 0.00 83 1065.8
20260508180225 10 315 4.8 4.8 0.00 0.00 0.00 82 1028.1
20260508175725 10 292 3.2 4.8 0.00 0.00 0.00 82 1053.4
20260508175225 10 270 1.6 22.5 0.00 0.00 0.00 82 1063.3
20260508174725 10 292 4.8 9.7 0.00 0.00 0.00 82 1036.6
20260508174524 10 315 8.0 9.7 0.00 0.00 0.00 82 1043.8
20260508174225 10 0 3.2 6.4 0.00 0.00 0.00 82 1075.6
20260508173725 10 337 3.2 6.4 0.00 0.00 0.00 82 1069.2
20260508173225 10 337 3.2 8.0 0.00 0.00 0.00 82 1048.1
20260508172725 10 292 3.2 3.2 0.00 0.00 0.00 83 1046.9
20260508172225 10 337 3.2 4.8 0.00 0.00 0.00 83 1041.1
20260508171725 10 315 3.2 6.4 0.00 0.00 0.00 83 1067.0
20260508171224 10 22 3.2 8.0 0.00 0.00 0.00 83 1053.8
20260508170725 10 315 3.2 9.7 0.00 0.00 0.00 83 1065.7
20260508170225 10 0 4.8 8.0 0.00 0.00 0.00 83 1072.1
20260508165725 10 22 4.8 9.7 0.00 0.00 0.00 83 997.1
20260508165225 10 22 3.2 8.0 0.00 0.00 0.00 83 1051.5
20260508164725 10 0 3.2 12.9 0.00 0.00 0.00 82 1057.3
20260508164225 10 22 8.0 11.3 0.00 0.00 0.00 82 1037.5
20260508163924 10 22 8.0 11.3 0.00 0.00 0.00 82 1031.1
20260508163725 10 0 8.0 9.7 0.00 0.00 0.00 82 1049.0
20260508163225 10 0 3.2 12.9 0.00 0.00 0.00 82 1040.9
20260508162725 10 0 4.8 11.3 0.00 0.00 0.00 81 1022.5
20260508162225 10 0 8.0 14.5 0.00 0.00 0.00 81 1050.6
20260508161725 10 22 6.4 12.9 0.00 0.00 0.00 80 1030.4
20260508161225 10 22 6.4 12.9 0.00 0.00 0.00 79 1041.5
20260508160725 10 292 3.2 14.5 0.00 0.00 0.00 79 1047.9
20260508160624 10 0 3.2 14.5 0.00 0.00 0.00 79 1059.5
20260508160225 11 0 14.5 14.5 0.00 0.00 0.00 78 1041.0
20260508155725 11 337 6.4 12.9 0.00 0.00 0.00 78 1044.1
20260508155235 11 0 12.9 12.9 0.00 0.00 0.00 77 1042.3
20260508155225 11 0 12.9 12.9 0.00 0.00 0.00 77 1042.3
20260508154725 11 0 6.4 11.3 0.00 0.00 0.00 77 1039.3
20260508154225 11 0 3.2 8.0 0.00 0.00 0.00 76 1040.9
20260508153725 11 22 8.0 9.7 0.00 0.00 0.00 76 1049.7
20260508153324 11 0 4.8 11.3 0.00 0.00 0.00 76 1022.3
20260508153225 11 337 3.2 11.3 0.00 0.00 0.00 76 1020.8
20260508152725 11 292 3.2 9.7 0.00 0.00 0.00 75 1032.1
20260508152225 11 315 6.4 11.3 0.00 0.00 0.00 75 1042.2
20260508151725 11 337 11.3 12.9 0.00 0.00 0.00 74 988.4
20260508151225 12 315 8.0 17.7 0.00 0.00 0.00 73 1054.0
20260508150725 12 315 3.2 14.5 0.00 0.00 0.00 72 1039.7
20260508150225 12 337 3.2 11.3 0.00 0.00 0.00 72 1036.6
20260508150024 12 337 11.3 40.2 0.00 0.00 0.00 72 1035.2
20260508145725 12 337 4.8 40.2 0.00 0.00 0.00 71 999.1
20260508145225 12 337 8.0 17.7 0.00 0.00 0.00 71 1010.2
20260508144725 12 292 6.4 8.0 0.00 0.00 0.00 71 1028.5
20260508144225 12 0 0.0 9.7 0.00 0.00 0.00 71 1033.4
20260508143725 12 22 4.8 12.9 0.00 0.00 0.00 71 1018.5
20260508143225 12 22 8.0 14.5 0.00 0.00 0.00 71 1051.0
20260508142724 12 0 14.5 14.5 0.00 0.00 0.00 71 1049.0
20260508142225 12 22 4.8 11.3 0.00 0.00 0.00 71 1016.4
20260508141725 12 0 8.0 9.7 0.00 0.00 0.00 71 1010.3
20260508141225 12 315 4.8 9.7 0.00 0.00 0.00 72 1021.9
20260508140725 12 292 6.4 16.1 0.00 0.00 0.00 72 1059.5
20260508140225 12 0 4.8 14.5 0.00 0.00 0.00 72 1062.7
20260508135725 12 292 8.0 14.5 0.00 0.00 0.00 71 1094.1
20260508135424 12 337 4.8 11.3 0.00 0.00 0.00 71 1030.2
20260508135225 12 337 8.0 12.9 0.00 0.00 0.00 71 1036.5
20260508134725 12 0 9.7 9.7 0.00 0.00 0.00 70 1065.8
20260508134225 12 0 9.7 9.7 0.00 0.00 0.00 70 1075.2
20260508133725 12 0 4.8 9.7 0.00 0.00 0.00 70 1042.8
20260508133225 12 337 6.4 11.3 0.00 0.00 0.00 69 1075.3
20260508132725 12 337 6.4 9.7 0.00 0.00 0.00 69 1090.9
20260508132225 12 0 3.2 14.5 0.00 0.00 0.00 69 1072.1
20260508132124 12 67 3.2 14.5 0.00 0.00 0.00 69 1004.1
20260508131725 12 337 3.2 11.3 0.00 0.00 0.00 69 1019.8
20260508131225 13 337 6.4 16.1 0.00 0.00 0.00 68 1052.2
20260508130725 13 292 4.8 9.7 0.00 0.00 0.00 68 1068.9
20260508130225 13 45 3.2 14.5 0.00 0.00 0.00 67 1042.8
20260508125725 13 270 6.4 16.1 0.00 0.00 0.00 67 1084.7
20260508125225 13 292 9.7 12.9 0.00 0.00 0.00 66 1042.8
20260508124824 13 315 9.7 16.1 0.00 0.00 0.00 67 1091.5
20260508124725 13 0 12.9 16.1 0.00 0.00 0.00 67 1024.0
20260508124226 13 292 4.8 12.9 0.00 0.00 0.00 67 1046.0
20260508123725 13 315 11.3 11.3 0.00 0.00 0.00 67 991.6
20260508123225 13 315 6.4 12.9 0.00 0.00 0.00 67 1087.8
20260508122725 13 315 3.2 12.9 0.00 0.00 0.00 68 1084.7
20260508122225 13 292 12.9 12.9 0.00 0.00 0.00 69 1036.6
20260508121725 13 225 3.2 11.3 0.00 0.00 0.00 69 1052.2
20260508121524 12 0 3.2 14.5 0.00 0.00 0.00 69 1049.1
20260508121225 12 0 8.0 14.5 0.00 0.00 0.00 69 1040.2
20260508120725 12 337 9.7 16.1 0.00 0.00 0.00 69 1075.3
20260508120225 12 292 14.5 14.5 0.00 0.00 0.00 69 1039.7
20260508115725 13 315 12.9 12.9 0.00 0.00 0.00 69 1065.8
20260508115226 13 337 8.0 12.9 0.00 0.00 0.00 68 1020.7
20260508114726 13 292 8.0 16.1 0.00 0.00 0.00 68 1001.0
20260508114224 13 292 8.0 14.5 0.00 0.00 0.00 67 1010.4
20260508113725 13 292 8.0 11.3 0.00 0.00 0.00 67 923.6
20260508113225 13 315 6.4 19.3 0.00 0.00 0.00 67 988.4
20260508112725 13 292 6.4 17.7 0.00 0.00 0.00 67 1036.5
20260508112225 13 270 4.8 16.1 0.00 0.00 0.00 67 1084.6
20260508111726 13 270 4.8 11.3 0.00 0.00 0.00 67 1055.3
20260508111227 13 315 4.8 11.3 0.00 0.00 0.00 67 1078.4
20260508110924 13 0 3.2 12.9 0.00 0.00 0.00 66 1094.1
20260508110725 13 292 11.3 17.7 0.00 0.00 0.00 66 988.4
20260508110225 13 315 14.5 16.1 0.00 0.00 0.00 67 1052.2
20260508105725 13 292 3.2 9.7 0.00 0.00 0.00 70 1081.5
20260508105225 13 315 4.8 8.0 0.00 0.00 0.00 70 1007.3
20260508104726 12 292 8.0 9.7 0.00 0.00 0.00 69 1090.9
20260508104225 13 315 4.8 14.5 0.00 0.00 0.00 69 1042.8
20260508103725 13 337 9.7 12.9 0.00 0.00 0.00 67 956.0
20260508103624 13 315 12.9 12.9 0.00 0.00 0.00 67 997.9
20260508103225 13 337 9.7 12.9 0.00 0.00 0.00 67 1081.5
20260508102725 13 270 6.4 6.4 0.00 0.00 0.00 67 1081.5
20260508102226 13 292 0.0 8.0 0.00 0.00 0.00 68 1090.9
20260508101726 13 315 0.0 6.4 0.00 0.00 0.00 67 1072.1
20260508101225 13 22 3.2 9.7 0.00 0.00 0.00 67 1004.1
20260508100725 13 292 3.2 6.4 0.00 0.00 0.00 68 1046.0
20260508100324 13 202 0.0 6.4 0.00 0.00 0.00 68 1052.2
20260508100225 13 315 0.0 6.4 0.00 0.00 0.00 68 1081.5
20260508095725 13 315 4.8 9.7 0.00 0.00 0.00 67 1087.8
20260508095225 13 270 1.6 8.0 0.00 0.00 0.00 67 1084.6
20260508094725 14 292 4.8 14.5 0.00 0.00 0.00 65 1007.9
20260508094225 15 22 8.0 12.9 0.00 0.00 0.00 64 1081.5
20260508093725 15 270 9.7 12.9 0.00 0.00 0.00 64 1030.3
20260508093226 16 315 3.2 8.0 0.00 0.00 0.00 65 1036.6
20260508093025 16 292 6.4 8.0 0.00 0.00 0.00 67 994.7
20260508092725 16 292 3.2 11.3 0.00 0.00 0.00 65 1055.4
20260508092226 16 292 11.3 11.3 0.00 0.00 0.00 66 1036.6
20260508091725 16 292 0.0 6.4 0.00 0.00 0.00 70 881.7
20260508091226 15 292 4.8 4.8 0.00 0.00 0.00 74 1027.1
20260508090726 15 337 1.6 8.0 0.00 0.00 0.00 75 1087.8
20260508090226 13 292 0.0 3.2 0.00 0.00 0.00 79 1039.7
20260508085736 13 270 0.0 11.3 0.00 0.00 0.00 78 1085.2
20260508085725 13 270 0.0 11.3 0.00 0.00 0.00 78 1052.2
20260508085226 13 270 0.0 9.7 0.00 0.00 0.00 78 1081.5
20260508084726 13 337 4.8 6.4 0.00 0.00 0.00 81 1049.1
20260508084226 12 270 1.6 4.8 0.00 0.00 0.00 82 1090.9
20260508083726 12 22 1.6 4.8 0.00 0.00 0.00 84 1090.9
20260508083226 11 22 0.0 4.8 0.00 0.00 0.00 84 1078.4
20260508082726 11 270 3.2 9.7 0.00 0.00 0.00 84 1058.5
20260508082425 11 315 3.2 9.7 0.00 0.00 0.00 84 1020.8
20260508082226 11 292 6.4 9.7 0.00 0.00 0.00 84 1072.1
20260508081726 11 315 6.4 8.0 0.00 0.00 0.00 85 1052.2
20260508081226 11 0 1.6 8.0 0.00 0.00 0.00 86 1049.1
20260508080726 11 315 1.6 3.2 0.00 0.00 0.00 87 1007.3
20260508080226 11 315 0.0 3.2 0.00 0.00 0.00 88 1061.5
20260508075726 11 0 0.0 0.0 0.00 0.00 0.00 88 1007.3
20260508075226 11 247 0.0 4.8 0.00 0.00 0.00 88 1049.1
20260508075125 11 315 3.2 4.8 0.00 0.00 0.00 89 1015.6
20260508074726 10 337 1.6 4.8 0.00 0.00 0.00 89 1097.2
20260508074226 10 22 1.6 6.4 0.00 0.00 0.00 89 1013.5
20260508073726 10 337 4.8 8.0 0.00 0.00 0.00 89 1055.3
20260508073226 10 315 4.8 8.0 0.00 0.00 0.00 89 1010.4
20260508072726 10 0 3.2 9.7 0.00 0.00 0.00 89 978.9
20260508072226 10 337 1.6 11.3 0.00 0.00 0.00 89 997.9
20260508071825 9 0 6.4 8.0 0.00 0.00 0.00 89 1029.5
20260508071726 9 0 3.2 8.0 0.00 0.00 0.00 89 981.4
20260508071226 9 315 6.4 9.7 0.00 0.00 0.00 89 1097.2
20260508070726 9 0 4.8 9.7 0.00 0.00 0.00 88 1004.1
20260508070226 9 0 6.4 8.0 0.00 0.00 0.00 88 1081.5
20260508065726 9 22 6.4 6.4 0.00 0.00 0.00 88 1013.4
20260508065226 9 292 3.2 8.0 0.00 0.00 0.00 88 962.3
20260508064726 9 67 1.6 8.0 0.00 0.00 0.00 88 1041.7
20260508064525 9 0 6.4 6.4 0.00 0.00 0.00 88 1055.3
20260508064226 9 337 3.2 9.7 0.00 0.00 0.00 88 1097.2
20260508063726 9 270 4.8 6.4 0.00 0.00 0.00 88 1022.8
20260508063226 9 0 1.6 6.4 0.00 0.00 0.00 87 1003.4
20260508062726 9 0 3.2 4.8 0.00 0.00 0.00 87 1014.6
20260508062226 9 337 3.2 6.4 0.00 0.00 0.00 87 1008.4
20260508061726 9 45 0.0 9.7 0.00 0.00 0.00 87 957.7
20260508061225 9 22 9.7 9.7 0.00 0.00 0.00 86 929.8
20260508060726 9 0 1.6 6.4 0.00 0.00 0.00 86 932.7
20260508060226 9 315 0.0 9.7 0.00 0.00 0.00 86 1052.2
20260508055726 9 292 8.0 9.7 0.00 0.00 0.00 85 956.0
20260508055226 9 315 3.2 9.7 0.00 0.00 0.00 85 1062.1
20260508054726 10 315 4.8 6.4 0.00 0.00 0.00 85 1090.9
20260508054226 10 0 3.2 9.7 0.00 0.00 0.00 85 1004.1
20260508053925 10 315 3.2 11.3 0.00 0.00 0.00 85 1036.1
20260508053726 10 22 3.2 11.3 0.00 0.00 0.00 85 1052.2
20260508053226 10 315 1.6 4.8 0.00 0.00 0.00 85 932.5
20260508052726 9 247 0.0 9.7 0.00 0.00 0.00 85 1011.8
20260508052226 10 22 8.0 12.9 0.00 0.00 0.00 85 1097.2
20260508051726 10 22 4.8 9.7 0.00 0.00 0.00 84 1052.1
20260508051226 10 337 8.0 8.0 0.00 0.00 0.00 84 962.2
20260508050726 10 0 4.8 8.0 0.00 0.00 0.00 84 1046.0
20260508050625 10 315 6.4 9.7 0.00 0.00 0.00 84 997.8
20260508050226 10 337 4.8 9.7 0.00 0.00 0.00 84 1016.6
20260508045726 10 292 6.4 8.0 0.00 0.00 0.00 84 1052.2
20260508045226 10 337 6.4 11.3 0.00 0.00 0.00 84 1097.2
20260508044726 10 270 8.0 11.3 0.00 0.00 0.00 84 1016.7
20260508044226 10 337 4.8 11.3 0.00 0.00 0.00 84 1049.1
20260508043726 10 315 8.0 12.9 0.00 0.00 0.00 84 1013.0
20260508043325 10 315 6.4 8.0 0.00 0.00 0.00 84 1001.0
20260508043226 10 292 6.4 9.7 0.00 0.00 0.00 84 1057.6
20260508042726 10 337 9.7 9.7 0.00 0.00 0.00 84 1013.5
20260508042226 10 292 4.8 9.7 0.00 0.00 0.00 84 931.3
20260508041726 10 315 9.7 12.9 0.00 0.00 0.00 84 929.8
20260508041226 10 0 3.2 6.4 0.00 0.00 0.00 84 929.3
20260508040726 9 292 1.6 9.7 0.00 0.00 0.00 84 1055.4
20260508040226 9 22 0.0 6.4 0.00 0.00 0.00 84 1011.2
20260508040025 9 0 6.4 6.4 0.00 0.00 0.00 84 967.4
20260508035726 9 337 4.8 6.4 0.00 0.00 0.00 84 963.0
20260508035226 9 337 1.6 9.7 0.00 0.00 0.00 84 976.8
20260508034726 9 292 3.2 9.7 0.00 0.00 0.00 84 1055.5
20260508034226 9 337 3.2 12.9 0.00 0.00 0.00 84 1053.8
20260508033726 9 225 0.0 11.3 0.00 0.00 0.00 84 996.1
20260508033226 9 315 6.4 9.7 0.00 0.00 0.00 84 1039.7
20260508032725 9 315 8.0 12.9 0.00 0.00 0.00 84 972.8
20260508032226 9 337 1.6 12.9 0.00 0.00 0.00 83 1020.1
20260508031726 9 292 6.4 12.9 0.00 0.00 0.00 83 918.9